Wind_Speed
114 114 113 111 109 107 101 95 89 85 83 83 83 84 85 85 85 84 84 84 85 87 88 90 91 91 90 89 90 91 92 93 92 92 89 86 85 82 79 79 77 74
115 114 112 110 107 104 98 93 89 86 85 85 86 87 88 88 87 86 85 84 85 86 88 89 90 90 89 88 89 89 90 91 90 89 87 83 83 81 77 78 77 74
114 113 111 109 105 101 97 92 89 88 88 89 90 91 91 90 89 87 85 84 84 86 87 88 87 88 88 87 87 88 88 88 87 87 84 81 81 79 76 77 76 74
113 111 109 106 103 100 96 93 91 90 91 92 93 94 94 92 90 87 85 84 84 85 85 86 86 86 86 86 86 86 86 85 84 83 81 79 79 76 74 75 75 74
110 108 106 104 102 100 96 93 92 93 94 95 95 96 95 93 90 87 85 84 84 84 84 83 83 83 84 84 85 85 83 81 80 79 77 76 77 74 72 73 74 73
107 105 103 102 102 99 96 94 94 95 96 96 96 96 95 93 90 86 84 83 83 83 83 82 80 80 81 82 83 83 81 78 76 74 73 74 74 72 71 71 71 71
103 102 102 103 102 99 97 96 97 98 98 97 96 95 94 92 89 86 83 82 82 82 81 80 79 78 78 80 81 80 78 76 73 70 69 71 71 70 69 68 68 68
101 102 103 103 102 100 98 98 99 100 99 97 96 94 93 91 89 85 82 81 80 79 79 78 78 77 77 77 77 76 75 73 70 66 67 69 69 68 67 66 65 66
101 103 104 104 102 100 100 100 101 100 99 97 95 94 93 92 89 85 82 80 79 77 76 76 76 76 76 76 74 72 72 71 67 64 65 67 67 65 65 64 63 63
102 104 105 104 103 101 101 102 101 99 98 97 96 95 94 92 89 86 83 80 78 76 75 75 75 76 75 74 71 69 69 67 65 63 64 65 65 63 62 62 61 60
103 105 106 105 103 103 102 102 100 98 97 97 96 96 95 93 89 86 83 80 78 76 74 74 75 74 74 72 68 67 67 65 62 63 63 63 63 61 59 59 59 58
105 106 106 105 104 103 102 101 99 97 97 97 98 98 97 94 90 87 83 80 77 75 74 73 73 73 73 70 66 65 65 62 60 62 62 61 61 59 57 56 57 57
105 106 106 105 104 103 102 100 98 97 97 98 99 99 97 95 91 87 83 79 76 74 73 72 72 73 72 67 63 63 63 60 59 60 60 59 59 57 54 54 54 55
106 106 106 105 104 103 101 99 98 98 99 100 100 100 99 96 92 86 81 78 75 72 71 70 70 72 70 65 62 62 61 59 59 58 58 58 57 54 52 52 52 53
106 106 106 106 104 103 101 100 99 99 100 101 102 101 100 98 93 87 81 76 73 71 68 67 68 70 68 63 61 61 59 58 58 56 56 56 54 52 51 50 50 51
106 107 107 106 104 103 102 101 100 101 102 103 103 103 102 99 93 87 80 75 72 69 66 65 67 69 66 61 59 59 57 57 57 55 54 55 52 49 49 49 49 49
107 107 107 106 105 104 103 102 102 102 103 103 104 105 104 100 93 86 79 74 71 68 64 63 64 66 64 60 58 57 55 56 56 54 53 52 50 48 47 47 48 49
108 108 107 107 106 105 105 104 103 104 104 105 106 106 105 100 93 85 78 74 70 66 63 61 62 62 61 58 56 55 53 54 55 54 51 49 47 46 46 46 47 49
109 108 108 108 108 107 107 106 105 105 106 106 107 107 105 100 93 85 78 73 70 66 63 61 61 60 59 57 55 53 51 53 54 53 50 46 44 45 45 45 47 48
109 109 110 110 110 109 109 108 108 107 108 108 109 108 106 100 92 84 77 73 70 65 62 61 60 58 57 55 53 51 50 52 52 51 47 44 43 43 44 45 46 47
111 111 112 112 112 112 111 111 111 110 110 111 111 110 107 101 91 82 76 72 69 65 62 61 59 57 55 54 52 50 49 51 50 48 45 42 41 42 42 44 45 45
113 113 114 115 115 114 114 114 114 113 113 113 113 112 108 100 90 81 74 70 68 65 62 61 59 55 53 52 50 48 49 49 48 45 42 40 40 40 41 43 44 44
115 116 116 116 116 116 116 116 116 115 115 115 114 112 108 100 89 80 73 68 66 64 61 60 59 54 50 50 49 47 48 48 45 42 39 38 39 39 40 42 43 43
117 118 118 117 117 117 117 117 117 116 116 115 114 112 107 98 88 78 72 66 64 63 60 58 58 54 49 48 47 46 47 46 43 40 37 36 37 38 39 41 41 42
119 120 119 118 118 118 118 118 117 116 116 116 114 112 106 97 86 77 70 65 63 62 60 57 56 53 48 45 45 44 45 45 41 37 35 35 36 37 39 40 40 40
121 120 119 118 118 118 118 118 117 117 116 115 114 111 105 95 84 76 69 64 61 61 59 56 55 52 47 44 43 44 44 43 39 35 33 34 35 36 39 40 40 41
Wind_Direction
307 308 308 308 307 307 309 309 310 311 311 311 310 309 308 306 304 301 298 296 294 292 290 289 289 288 287 286 285 283 282 282 282 281 280 279 278 276 274 271 268 265
307 308 308 308 309 310 311 312 312 313 313 313 312 311 310 308 305 303 299 297 294 292 291 290 289 288 288 286 285 283 282 282 282 281 280 278 276 275 272 269 266 264
308 308 309 309 311 313 313 314 314 315 315 315 314 313 311 309 307 304 301 298 295 293 292 291 290 289 288 286 284 283 282 282 281 280 279 277 275 273 270 267 265 263
308 309 310 312 313 314 315 315 316 317 317 317 315 314 313 311 308 306 303 299 296 294 293 292 291 290 288 286 284 283 282 281 280 279 278 276 274 271 268 265 264 262
309 310 312 314 315 315 316 317 318 318 318 317 316 315 314 312 309 307 304 301 298 296 294 293 292 291 288 286 284 283 282 281 280 279 277 275 272 270 267 265 263 261
311 313 315 316 316 316 318 319 319 319 319 318 317 316 314 313 311 308 305 302 300 298 296 294 293 291 288 286 285 284 283 282 280 278 276 274 271 269 266 264 262 260
314 316 317 317 317 318 319 320 320 320 320 319 318 317 315 314 312 310 307 304 301 299 298 296 294 291 288 286 285 285 284 282 280 279 276 273 270 268 265 262 260 259
317 318 318 318 318 320 321 321 321 321 320 319 319 318 317 315 313 311 308 305 303 301 299 297 295 292 289 287 286 286 284 283 281 279 275 272 269 267 264 261 259 257
319 319 319 319 320 321 322 322 322 322 321 320 320 319 318 316 314 312 309 306 304 302 300 298 296 293 291 289 287 286 284 283 282 279 275 271 268 266 263 261 258 255
320 320 320 321 322 323 323 323 323 322 322 321 321 321 319 317 315 313 310 308 306 304 303 300 297 294 292 290 289 287 284 283 282 279 274 271 268 265 263 260 257 254
321 321 322 322 324 324 324 324 324 323 322 322 322 321 320 317 316 314 312 310 308 307 305 302 298 295 293 291 289 287 285 284 282 278 274 271 269 266 262 260 257 254
322 322 323 324 325 325 325 325 324 324 323 323 323 322 320 318 316 315 313 311 310 309 307 303 299 296 293 292 290 288 286 285 282 278 274 271 269 266 263 260 257 253
323 323 324 325 326 326 326 326 325 325 324 324 323 322 320 318 317 315 314 312 311 310 307 303 300 296 293 293 292 289 287 285 281 278 275 272 269 267 263 260 256 253
324 324 325 326 327 327 327 327 326 326 325 324 323 322 320 318 317 315 314 313 312 311 307 303 299 296 294 294 293 290 288 285 281 278 275 272 270 267 264 259 255 252
324 325 326 327 328 328 328 328 328 327 326 325 323 322 320 319 317 316 314 314 313 310 306 302 298 295 294 294 293 290 288 285 281 278 275 272 269 266 263 259 255 250
325 326 327 328 329 329 329 329 328 328 326 325 323 322 320 319 317 316 315 315 314 310 306 302 298 295 294 295 293 291 289 285 281 278 274 272 269 266 262 258 253 248
326 327 328 328 329 330 330 330 329 328 326 325 323 322 320 318 317 317 316 316 314 310 306 302 297 295 295 295 293 290 289 285 281 277 273 271 269 266 262 257 252 246
327 328 328 329 330 330 330 330 329 328 326 325 324 322 320 318 318 318 318 317 314 310 306 302 297 296 297 295 293 291 289 284 280 277 273 271 269 265 261 256 251 244
328 329 329 330 330 331 331 330 329 328 327 325 323 321 319 318 318 319 319 318 314 310 307 303 299 298 298 296 293 292 289 283 279 276 274 271 268 264 259 255 249 243
328 329 330 330 330 331 331 330 329 328 327 325 323 321 319 318 319 319 319 318 315 311 308 304 300 300 299 296 294 292 287 282 278 275 274 271 266 262 258 253 247 241
328 329 330 330 330 330 330 330 329 328 326 325 323 321 319 318 319 319 320 319 315 310 308 304 301 301 300 296 293 291 285 281 277 275 273 269 264 260 256 251 245 239
328 329 329 329 329 329 329 329 329 328 326 325 323 320 318 318 319 319 319 319 315 310 308 305 302 301 299 295 292 289 283 279 276 274 271 267 262 258 254 249 243 237
328 329 328 328 328 328 328 328 328 327 326 324 322 320 318 318 319 319 319 318 315 310 308 305 302 300 298 294 291 287 282 278 275 273 270 264 260 256 251 246 240 235
327 328 327 327 327 327 328 328 328 327 325 324 322 319 318 318 319 319 319 318 315 310 307 305 302 300 297 294 290 286 281 278 275 272 268 262 258 254 249 244 238 233
326 326 326 326 326 327 327 328 327 326 325 323 321 318 317 318 319 320 319 317 315 311 308 305 302 299 296 293 289 284 280 277 275 271 266 260 255 250 245 240 234 228
325 325 325 325 325 326 327 327 327 326 325 323 320 318 317 318 319 320 319 317 314 311 308 305 302 299 296 293 288 283 279 277 275 270 263 257 252 246 241 235 229 223
Height
10444 10437 10429 10421 10411 10401 10391 10382 10373 10366 10357 10348 10340 10332 10324 10316 10308 10300 10293 10286 10278 10270 10263 10256 10249 10242 10238 10234 10229 10225 10219 10213 10209 10206 10205 10205 10202 10202 10203 10202 10204 10207
10429 10422 10413 10405 10395 10384 10375 10366 10358 10351 10343 10334 10325 10316 10309 10301 10293 10285 10278 10273 10265 10257 10250 10243 10237 10229 10224 10219 10214 10210 10205 10199 10195 10191 10191 10192 10188 10188 10190 10188 10190 10193
10415 10407 10398 10389 10379 10369 10360 10351 10342 10335 10327 10319 10310 10300 10293 10285 10277 10270 10263 10258 10251 10243 10236 10229 10224 10217 10210 10205 10199 10195 10190 10185 10182 10178 10177 10178 10175 10175 10176 10175 10176 10179
10401 10392 10383 10373 10363 10354 10345 10337 10328 10320 10312 10304 10294 10284 10276 10269 10262 10255 10248 10242 10236 10229 10222 10215 10210 10203 10196 10190 10185 10180 10176 10172 10169 10165 10164 10164 10161 10162 10162 10161 10163 10165
10387 10378 10368 10358 10348 10340 10331 10322 10314 10306 10298 10289 10280 10269 10260 10253 10246 10240 10233 10226 10219 10213 10208 10202 10197 10189 10182 10175 10169 10165 10162 10159 10156 10153 10152 10150 10147 10148 10149 10149 10150 10151
10374 10364 10354 10344 10335 10325 10317 10308 10299 10291 10283 10275 10266 10256 10246 10237 10231 10225 10219 10212 10204 10198 10192 10188 10183 10176 10168 10161 10155 10151 10148 10146 10143 10141 10139 10136 10134 10135 10136 10137 10138 10139
10361 10351 10341 10331 10321 10311 10302 10293 10285 10277 10269 10261 10252 10242 10232 10223 10216 10210 10204 10197 10190 10183 10177 10172 10167 10161 10154 10148 10142 10138 10134 10132 10130 10129 10126 10123 10121 10122 10123 10125 10126 10127
10347 10338 10327 10317 10307 10298 10289 10280 10271 10263 10254 10246 10238 10228 10217 10208 10201 10195 10189 10182 10176 10169 10164 10157 10150 10145 10139 10134 10130 10126 10122 10119 10117 10117 10114 10109 10109 10109 10110 10113 10115 10116
10334 10324 10314 10304 10295 10285 10276 10267 10258 10249 10240 10231 10223 10213 10203 10194 10186 10180 10174 10168 10162 10156 10150 10143 10136 10130 10125 10120 10117 10114 10111 10107 10104 10104 10101 10097 10096 10097 10098 10101 10104 10105
10321 10311 10302 10292 10282 10273 10264 10255 10246 10237 10227 10217 10209 10200 10190 10181 10172 10165 10159 10153 10147 10142 10136 10129 10121 10116 10111 10106 10104 10102 10098 10095 10092 10090 10088 10085 10084 10085 10087 10089 10092 10094
10308 10298 10289 10280 10271 10261 10252 10244 10234 10225 10215 10204 10195 10186 10177 10167 10160 10152 10146 10140 10134 10128 10122 10115 10107 10101 10097 10094 10092 10089 10085 10083 10080 10077 10075 10073 10072 10074 10077 10078 10081 10083
10295 10286 10277 10268 10259 10250 10241 10232 10222 10213 10203 10192 10182 10174 10164 10155 10147 10140 10134 10127 10121 10115 10108 10101 10094 10088 10083 10081 10080 10077 10072 10071 10068 10065 10063 10062 10061 10063 10066 10068 10070 10072
10284 10275 10266 10257 10248 10239 10230 10221 10211 10200 10190 10180 10170 10161 10152 10143 10136 10130 10123 10116 10110 10104 10096 10088 10081 10074 10070 10070 10069 10064 10060 10059 10056 10053 10052 10051 10051 10053 10056 10058 10059 10062
10273 10263 10254 10245 10237 10228 10218 10209 10199 10188 10178 10168 10159 10149 10139 10131 10124 10119 10113 10106 10099 10093 10085 10077 10069 10061 10058 10058 10057 10052 10048 10047 10044 10042 10041 10040 10041 10043 10045 10047 10049 10052
10261 10252 10243 10234 10225 10216 10206 10197 10187 10177 10167 10157 10147 10137 10128 10120 10113 10107 10102 10096 10089 10082 10074 10067 10058 10050 10047 10048 10045 10040 10038 10035 10033 10032 10031 10030 10031 10034 10035 10037 10039 10042
10250 10241 10232 10222 10213 10204 10195 10186 10176 10166 10156 10147 10136 10126 10117 10109 10102 10096 10090 10085 10079 10071 10064 10057 10048 10040 10037 10037 10034 10030 10028 10024 10022 10022 10021 10020 10022 10024 10026 10028 10030 10032
10239 10230 10220 10211 10202 10192 10183 10174 10165 10156 10147 10137 10126 10116 10106 10099 10092 10086 10080 10074 10068 10061 10054 10047 10039 10031 10028 10026 10023 10020 10019 10015 10011 10012 10012 10012 10014 10016 10017 10019 10021 10023
10227 10218 10209 10199 10190 10181 10173 10164 10155 10146 10136 10126 10116 10105 10096 10088 10082 10076 10071 10065 10058 10051 10044 10037 10029 10023 10020 10016 10013 10011 10010 10006 10002 10002 10004 10005 10006 10008 10009 10011 10013 10014
10216 10207 10198 10188 10179 10171 10162 10154 10145 10135 10125 10116 10105 10095 10085 10078 10072 10066 10060 10054 10047 10040 10034 10027 10020 10015 10011 10007 10004 10003 10001 9998 9994 9994 9996 9998 9999 10000 10001 10003 10005 10007
10204 10196 10187 10177 10169 10160 10151 10143 10134 10124 10115 10104 10094 10084 10075 10068 10063 10057 10051 10045 10038 10031 10025 10017 10011 10008 10003 9998 9996 9995 9992 9989 9987 9987 9989 9991 9992 9993 9994 9995 9998 10001
10193 10185 10176 10167 10158 10149 10141 10132 10123 10114 10104 10094 10084 10073 10064 10058 10053 10047 10042 10037 10029 10022 10016 10008 10002 10000 9996 9990 9988 9987 9984 9981 9979 9980 9982 9984 9985 9986 9987 9989 9991 9995
10181 10173 10165 10156 10148 10139 10131 10122 10113 10103 10093 10083 10074 10062 10053 10048 10044 10038 10033 10028 10020 10013 10007 9999 9994 9992 9989 9983 9980 9979 9976 9973 9973 9974 9976 9977 9978 9979 9981 9983 9986 9989
10170 10162 10154 10146 10137 10130 10122 10113 10103 10093 10083 10073 10063 10053 10043 10039 10035 10028 10022 10019 10012 10005 9998 9992 9985 9983 9981 9976 9973 9971 9968 9966 9967 9968 9969 9971 9972 9974 9975 9977 9980 9984
10158 10151 10144 10136 10127 10121 10113 10104 10094 10083 10073 10062 10052 10042 10034 10029 10026 10019 10013 10009 10004 9996 9990 9984 9977 9975 9973 9969 9966 9964 9961 9959 9960 9962 9963 9965 9966 9968 9970 9973 9976 9980
10147 10140 10134 10127 10118 10111 10103 10095 10085 10074 10063 10052 10041 10031 10024 10019 10016 10010 10003 9999 9994 9987 9981 9976 9970 9966 9965 9963 9960 9957 9954 9953 9954 9956 9958 9959 9961 9963 9965 9968 9971 9975
10137 10130 10124 10117 10109 10102 10094 10085 10076 10065 10053 10043 10031 10020 10013 10010 10006 10001 9994 9990 9986 9979 9973 9968 9963 9958 9956 9955 9953 9950 9948 9947 9948 9951 9953 9954 9955 9958 9959 9962 9966 9969